Tracking 31027 objects as of 19-Jul-2025
HD Live streaming from Space Station
objects crossing your sky now

CZ-3C DEB

Track CZ-3C DEB now!


NORAD ID: 40853
Int'l Code: 2012-008T
Perigee: 755.3 km
Apogee: 35,282.3 km
Inclination: 20.4 °
Period: 631.8 minutes
Semi major axis: 24389 km
RCS: Unknown
Launch date: February 24, 2012
Source: People's Republic of China (PRC)
Launch site: Xichang Space Center, China (XSC)

Note: This is SATELLITE DEBRIS
Your satellite tracking list
STARLINK-5088
Track 1 satellite(s)




NASA's NSSDC Master Catalog

Two Line Element Set (TLE):
1 40853U 12008T   25196.94732258 -.00000071  00000-0 -18716-2 0  9999
2 40853  20.3952 158.1301 7078169 305.8771   7.4388  2.27924364 90188
Source of the keplerian elements: AFSPC